Погода в Тихвине

Хотите узнать прогноз погоды в Тихвине? Тогда Вам сюда: Погода в Тихвине

Поиск расширенной информации на нашем сайте:

Полезная информация:

Новости сайта



02.01.2020
Опубликован Долгосрочный прогноз погоды по городам России и ближнего зарубежья на январь 2020 года.
Карты: Прогноз на январь и февраль 2020 года, Сравнение прогнозируемой аномалии приземной температуры воздуха на январь 2020 года по разным моделям.




Погода в Тихвине - сегодня

Время (UTC), дата Ветер
(°,м/с) 
Видим.   Явления Облачность Т
(°С)
Тd
(°С)
f(%) Тe
(°С)
Pmin
(гПа)
dP
(гПа)
Po
(мм)
O2
(г/м3)
Тmin Tmax R s Состояние
почвы
00 19.01.20 210 (ЮЗ) 10 км  {снег}  10/10 700 м 
[Sc]
+0.8 -1.2 86 1016.1  0.9  756  304           
03 19.01.20 210 (ЮЗ) 4000 м  дымка  10/10 360 м 
[St]
+1 +0.2 94 -1  1017  0.9  757  304  +0.2    0.3     
06 19.01.20 220 (ЮЗ) 4000 м  дымка  10/10 420 м 
[St]
+1.7 +0.9 94 +1  1017.9  0.9  758  303  +0.2    0.3     
09 19.01.20 210 (ЮЗ) 9000 м  дымка  10/10 450 м 
[St]
+2.2 +0.6 89 +1  1018  0.2  758  303           
12 19.01.20 200 (Ю) 15000 м    10/10 700 м 
[Sc]
+3.1 +0.5 83 +2  1017.8  -0.2  758  302           
15 19.01.20 210 (ЮЗ) 10 км  в посл. час морось  10/10 660 м 
[Sc]
+2.9 +1.3 89 +2  1017.5  -0.3  757  302      0.0     
18 19.01.20 220 (ЮЗ) 4000 м  слаб. дождь{морось}  10/10 480 м 
[Frnb|Ns]
+3 +2.8 99 +2  1018.6  1.1  758  302    +3.1  0.6     
21 19.01.20 260 (З) 20000 м  {дождь}  10/10 1110 м 
[Sc]
+1.6 +0.8 94 1020.1  1.4  759  304           
00 20.01.20 270 (З) 20000 м  {дождь}  10/10 660 м 
[Sc]
+0.6 -0.5 92 1021.5  1.4  760  306           
03 20.01.20 270 (З) 4000 м  слаб. снег  10/10 360 м 
[Frnb|Ns]
+0.3 +0 98 1021.9  0.4  761  306  +0.3       
06 20.01.20 260 (З) 10 км  слаб. снег  10/10 500 м 
[Frnb|Ns]
+0.4 -0.7 92 1020.5  -1.4  760  306  +0.3    равномерный
мокрый или
старый снег
100% 
09 20.01.20 220 (ЮЗ) 16000 м  слаб. снег  10/10 420 м 
[Frnb|Ns]
+0.6 +0 96 1020.8  0.3  760  305           
12 20.01.20 250 (З) 17000 м  в посл. час снег  10/10 420 м 
[St]
+1.4 +0.9 96 1019.3  -1.5  759  304           
15 20.01.20 210 (ЮЗ) 20000 м  {дождь, морось}  10/10 800 м 
[Sc]
+2.4 +1.4 93 +1  1018.9  -0.3  758  303         
18 20.01.20 230 (ЮЗ) 10 км  слаб. морось{снег, дождь}  10/10 450 м 
[Frnb|Ns]
+1 +0.5 96 -1  1014.7  -4.3  755  303    +3     
21 20.01.20 240 (ЮЗ) 10 км  слаб. морось  10/10 630 м 
[Frnb|Ns]
+1.6 +0.5 92 -1  1006.1  -3.3  753  301           
00 21.01.20 220 (ЮЗ) 10 км  слаб. дождь{морось}  10/10 420 м 
[Frnb|Ns]
+1.8 +1.3 96 1007.1  -4.1  750  300           
03 21.01.20 230 (ЮЗ) 20000 м  в посл. час морось{дождь}  10/10 400 м 
[St]
+2.2 +1.1 92 1003.3  -3.8  747  298  +1       
06 21.01.20 250 (З) 4-10{10}  20000 м  {дождь, морось}  10/10 450 м 
[St]
+4.5 +3.5 93 +3  1001.6  -1.7  746  295  +1.5       
09 21.01.20 250 (З) 4{10}  22000 м  {дождь}  10/10 480 м 
[St]
+5.4 +4.5 94 +4  999.4  -2.2  744  293           
12 21.01.20 270 (З) 4{10}  20000 м  в посл. час ливневой дождь  9/8 700 м кучево-дожд., верхняя 
[Cb cap|Ci fib]
+5.6 +3.9 89 +4  997.7  -1.7  743  293           
15 21.01.20 290 (З) 3{11}  20000 м    9/9 930 м 
[Sc]
+4.2 +1.7 84 +3  998.3  0.6  743  295         
18 21.01.20 280 (З) 3{11}  20000 м    ясно 
+1.8 -3.6 67 998.8  0.4  743  298    +6     
21 21.01.20 270 (З) 20000 м    8/0 средняя 
[Ac trans]
+1.1 -4.1 68 -1  999.2  0.4  744  299           
00 22.01.20 260 (З) 20000 м    10/10 1110 м 
[Sc]
+0.8 -4.1 70 -2  997.8  -1.4  743  299           
Время (UTC), дата Ветер
(°,м/с) 
Видим.   Явления Облачность Т
(°С)
Тd
(°С)
f(%) Тe
(°С)
Pmin
(гПа)
dP
(гПа)
Po
(мм)
O2
(г/м3)
Тmin Tmax R s Состояние
почвы

Для получения пояснительной информации подведите курсор к названию столбца.

ПОГОДА в Тихвине - архив

Всё, что Вы хотите узнать о погоде в Тихвине - удобно и подробно!

Выберите нужную дату (начиная с 1 января 2019* года) и нажмите кнопку "Найти".
Будут отображены архивные сводки погоды по пункту Тихвин, начиная с указанной даты.


Отображать данные в формате CSV (для использования в таблицах Excel)


Внимание! Наш архив погоды предназначен исключительно для личного некоммерческого использования в познавательных целях. Если Вам необходимы официальные справки о состоянии погоды (для производственных, юридических, коммерческих и т.п. целей), обращайтесь в органы Росгидромета.

*Примечание: данная дата относится к архиву по метеостанциям СССР (Россия, СНГ, Балтия).
Архив по метеостанциям Зарубежной Европы и Азии (кроме Китая) хранится 10 дней, по другим регионам земного шара (Китай, Африка, Америка, Австралия, Океания) - 1 день.

Тихвин - район местоположения метеостанции


Название, широта, долгота, высота метеостанции:
Тихвин 59.6°ш. 33.6°д. 61 м над ур. моря [Российская Федерация]

Дополнительная информация

В oтличие oт бoльшинства пoгoдных сайтoв мы публикуем пoдрoбную метеoинфoрмацию в детальнoм прoфессиoнальнoм фoрмате.

Характеристики температуры и влажнoсти вoздуха измеряются на высoте 2 м в тени вдали oт зданий и деревьев.
Скoрoсть ветра измеряется на высoте 10 м (на урoвне рoста челoвека скoрoсть ветра ниже в 1.5-2 раза). Если метеoстанция нахoдится в гoрoде или в лесу, тo скoрoсть ветра занижена на 2-4 м/с пo сравнению с oткрытым местoм. Скoрoсть ветра над акватoриями крупных рек и oзёр, а также на вершинах хoлмoв на 2-5 м/с выше, чем в oбычных услoвиях.
Атмoсфернoе давление в разных тoчках местнoсти мoжет значительнo oтличаться oт давления на метеoстанции, в зависимoсти oт услoвий рельефа (при пoдъёме на 10 м давление пoнижается примернo на 1 мм рт.ст.).